Location: Hengforden
(52.3167°N, 6.1333°E)
Time: 16:29:00
(UTC+00:00)

Cosmos 1933 Rocket - Pass Details

Date: 14 June 2025
Orbit: 600 x 625 km, 82.5° (Epoch: 20 July)

Event Time Altitude Azimuth Distance (km) Brightness Sun altitude
Rises 21:23:50 0° 348° (NNW) 2,908 8.6 -9.1°
Reaches altitude 10° 21:26:05 10° 348° (NNW) 1,994 7.5 -9.2°
Maximum altitude 21:30:30 82° 261° (W) 627 3.6 -9.6°
Enters shadow 21:34:38 11° 174° (S) 1,876 5.5 -9.9°
